Gainesville, FL

6:31 PM EDT on March 25, 2017 (GMT -0400)
Gainesville Regional

Weather History for KGNV - February, 2013

Change the Weather History Date:

Wednesday, February 13, 2013

  Actual Average Record
Temperature  
Mean Temperature 70 °F 57 °F  
Max Temperature 77 °F 69 °F 85 °F (1927)
Min Temperature 62 °F 45 °F 6 °F (1899)
Degree Days  
Heating Degree Days 0 8  
Month to date heating degree days 78 121  
Since 1 July heating degree days 622 923  
Cooling Degree Days 5 1  
Month to date cooling degree days 22 9  
Year to date cooling degree days 82 21  
Growing Degree Days 20 (Base 50)    
Moisture  
Dew Point 66 °F    
Average Humidity 82    
Maximum Humidity 90    
Minimum Humidity 73    
Precipitation  
Precipitation 0.04 in 0.11 in 1.77 in (1983)
Month to date precipitation 0.33 1.44  
Year to date precipitation 0.66 4.75  
Snow  
Snow 0.00 in 0.00 in 0.00 in ()
Month to date snowfall 0.0 0.0  
Since 1 July snowfall 0.0 0.0  
Snow Depth 0.00 in    
Sea Level Pressure  
Sea Level Pressure 29.88 in    
Wind  
Wind Speed 9 mph (WSW)    
Max Wind Speed 20 mph    
Max Gust Speed 30 mph    
Visibility 10 miles    
Events Rain    
T = Trace of Precipitation, MM = Missing Value Source: NWS Daily Summary

Daily Weather History Graph

Daily Weather History Graph

Search for Another Location

Airport or City:

Trip Planner

Search our weather history database for the weather conditions in past years. The results will help you decide how hot, cold, wet, or windy it might be!

Date:

Astronomy

Feb. 13, 2013 Rise Set
Actual Time 7:10 AM EST 6:16 PM EST
Civil Twilight 6:45 AM EST 6:41 PM EST
Nautical Twilight 6:17 AM EST 7:09 PM EST
Astronomical Twilight 5:49 AM EST 7:37 PM EST
Moon 8:59 AM EST (2/13) 9:55 PM EST (2/13)
Length of Visible Light 11h 55m
Length of Day
11h 06m
Waxing Crescent, 13% of the Moon is Illuminated
Feb 13
Waxing Crescent
Feb 17
First Quarter
Feb 25
Full
Mar 4
Last Quarter
Mar 11
New

Hourly Weather History & Observations

Time (EST) Temp. Dew Point Humidity Pressure Visibility Wind Dir Wind Speed Gust Speed Precip Events Conditions
12:02 AM 69.8 °F 66.2 °F 88% 29.91 in 8.0 mi SSW 8.1 mph - N/A   Mostly Cloudy
12:29 AM 69.8 °F 66.2 °F 88% 29.90 in 9.0 mi SSW 10.4 mph - N/A   Overcast
12:53 AM 70.0 °F 66.0 °F 87% 29.90 in 9.0 mi SSW 9.2 mph - N/A   Overcast
1:53 AM 72.0 °F 66.9 °F 84% 29.87 in 10.0 mi SSW 10.4 mph 19.6 mph N/A   Overcast
2:53 AM 72.0 °F 68.0 °F 87% 29.87 in 10.0 mi SSW 10.4 mph 17.3 mph N/A   Overcast
3:53 AM 73.0 °F 68.0 °F 84% 29.86 in 10.0 mi SSW 10.4 mph - N/A   Overcast
4:53 AM 73.0 °F 68.0 °F 84% 29.86 in 10.0 mi WSW 12.7 mph 26.5 mph N/A   Overcast
5:53 AM 73.0 °F 68.0 °F 84% 29.85 in 10.0 mi SW 15.0 mph 20.7 mph N/A   Overcast
6:53 AM 73.0 °F 69.1 °F 87% 29.86 in 10.0 mi SW 13.8 mph 23.0 mph N/A   Overcast
7:53 AM 73.0 °F 68.0 °F 84% 29.88 in 10.0 mi SW 9.2 mph 24.2 mph N/A   Overcast
8:36 AM 73.4 °F 68.0 °F 83% 29.88 in 10.0 mi SW 10.4 mph - N/A   Overcast
8:53 AM 73.9 °F 68.0 °F 82% 29.88 in 10.0 mi SSW 12.7 mph 20.7 mph N/A   Overcast
9:04 AM 73.4 °F 68.0 °F 83% 29.89 in 10.0 mi SW 15.0 mph 21.9 mph 0.00 in Rain Light Rain
9:53 AM 72.0 °F 69.1 °F 91% 29.90 in 9.0 mi SW 10.4 mph - 0.01 in Rain Light Rain
10:30 AM 73.4 °F 69.8 °F 88% 29.90 in 10.0 mi SW 8.1 mph - 0.00 in   Overcast
10:53 AM 73.0 °F 68.0 °F 84% 29.90 in 10.0 mi WSW 11.5 mph 21.9 mph 0.00 in Rain Light Rain
11:17 AM 73.4 °F 68.0 °F 83% 29.90 in 10.0 mi WSW 16.1 mph 21.9 mph 0.00 in Rain Light Rain
11:53 AM 75.9 °F 70.0 °F 82% 29.87 in 10.0 mi WSW 18.4 mph 26.5 mph 0.01 in   Mostly Cloudy
12:12 PM 75.2 °F 69.8 °F 83% 29.87 in 10.0 mi WSW 16.1 mph 26.5 mph N/A   Mostly Cloudy
12:33 PM 75.2 °F 68.0 °F 78% 29.89 in 10.0 mi WSW 10.4 mph 23.0 mph N/A   Mostly Cloudy
12:53 PM 73.9 °F 68.0 °F 82% 29.87 in 10.0 mi SW 10.4 mph 19.6 mph N/A   Overcast
1:34 PM 75.2 °F 68.0 °F 78% 29.85 in 10.0 mi WSW 15.0 mph 20.7 mph N/A   Overcast
1:41 PM 75.2 °F 68.0 °F 78% 29.84 in 10.0 mi WSW 11.5 mph 20.7 mph N/A   Mostly Cloudy
1:53 PM 75.0 °F 68.0 °F 79% 29.85 in 10.0 mi West 15.0 mph 21.9 mph N/A   Mostly Cloudy
2:53 PM 71.1 °F 68.0 °F 90% 29.86 in 8.0 mi West 12.7 mph - 0.00 in Rain Light Rain
3:53 PM 70.0 °F 66.0 °F 87% 29.84 in 10.0 mi WSW 5.8 mph - 0.01 in   Overcast
4:14 PM 69.8 °F 66.2 °F 88% 29.87 in 10.0 mi WSW 8.1 mph - N/A   Overcast
4:41 PM 69.8 °F 66.2 °F 88% 29.88 in 10.0 mi WSW 11.5 mph - N/A   Overcast
4:53 PM 70.0 °F 66.9 °F 90% 29.87 in 10.0 mi West 6.9 mph - N/A   Overcast
5:53 PM 68.0 °F 62.1 °F 81% 29.88 in 10.0 mi West 4.6 mph - N/A   Overcast
6:53 PM 66.9 °F 62.1 °F 84% 29.89 in 10.0 mi West 5.8 mph - N/A   Scattered Clouds
7:53 PM 66.9 °F 60.1 °F 79% 29.90 in 10.0 mi WNW 5.8 mph - N/A   Mostly Cloudy
8:53 PM 64.9 °F 55.9 °F 73% 29.94 in 10.0 mi WNW 5.8 mph - 0.01 in   Overcast
9:53 PM 64.0 °F 55.0 °F 73% 29.96 in 10.0 mi West 3.5 mph - N/A   Overcast
10:53 PM 64.0 °F 55.0 °F 73% 29.95 in 10.0 mi Calm Calm - N/A   Overcast
11:53 PM 63.0 °F 52.0 °F 67% 29.95 in 10.0 mi Calm Calm - N/A   Overcast